www.pogodaiklimat.ru

Погода и климат >> Архив погоды >> Беларусь >> Новогрудок


ПОГОДА в Новогрудке

  • Прогноз погоды в Новогрудке
  • Монитор погоды в Новогрудке
  • Климат города

АРХИВ ПОГОДЫ в Новогрудке

Время (UTC), дата Ветер
(напр.,м/с)
 
Видим.   Явления Облачность Т
(С)
Тd
(С)
f
(%)
Тe
(С)
Тes
(С)
Комфортность P
(гПа)
Po
(гПа)
Тmin
(С)
Tmax
(С)
R
(мм)
R24
(мм)
S
(см)
03 14.06 штиль 0 10 км 9/5 600 м
[Cb cap Ac As]
+14.9 +11.2 79 +15 +15 1009.1 976.6 +14.8
06 14.06 штиль 0 10 км 9/4 600 м
[Cb cap Ac As]
+16.2 +11.4 73 +16 +18 1009.7 977.4 +14.6
09 14.06 СЗ 2 10 км 8/6 600 м
[Cb cap Ac trans]
+18.2 +12.1 68 +19 +23 1010.7 978.5
12 14.06 С 2 10 км 9/8 600 м
[Cb cap Ac trans]
+20.3 +12.7 62 +23 +25 комфорт 1010.7 978.7
15 14.06 СВ 2 10 км 9/8 600 м
[Cb cap Ac trans]
+19.0 +11.3 61 +20 +21 1010.9 978.7
18 14.06 СВ 1 10 км {ливн. осадки} 8/8 600 м
[Cb cap Ac trans]
+18.1 +15.2 83 +19 +19 1011.5 979.3 +21.1 0.3
21 14.06 С 2 10 км 9/9 600 м
[Sc]
+14.8 +13.3 91 +14 +14 1012.9 980.3
00 15.06 С 2 10 км ясно +12.9 +12.2 96 +12 +12 1013.0 980.1
03 15.06 С 3 900 м туман ?/? +12.7 +12.5 99 +11 +11 1013.1 980.2 +11.8
06 15.06 СВ 3 9000 м дымка {туман} 9/9 600 м
[Sc]
+14.4 +13.3 93 +13 +14 1013.0 980.4 +11.8
09 15.06 С 3 10 км 9/8 600 м
[Cb cap Ac trans]
+18.6 +13.7 73 +19 +21 1013.3 981.1
12 15.06 СВ 2 10 км 9/9 600 м
[Cb cap]
+18.8 +13.1 69 +20 +22 1013.5 981.4
15 15.06 СВ 4 10 км 8/6 600 м
[Cb cap Ac trans]
+18.5 +12.8 69 +19 +20 1014.3 982.0
18 15.06 С 2 10 км 8/6 600 м
[Cb cap Ac trans]
+17.0 +14.2 84 +17 +17 1014.8 982.4 +19.4
21 15.06 С 2 10 км 4/3 600 м
[Sc Ac trans]
+13.9 +12.2 89 +13 +13 1015.6 982.8
00 16.06 СЗ 2 10 км 3/0
[Ac trans]
+12.4 +11.2 92 +11 +11 1015.9 982.9
03 16.06 СЗ 2 9000 м дымка 4/3 600 м
[Sc Ac trans]
+11.9 +11.1 95 +11 +11 1016.1 983.0 +11.6
06 16.06 С 2 10 км 8/6 600 м
[Sc Ac trans]
+14.6 +11.9 84 +14 +16 1016.3 983.6 +11.6
09 16.06 С 6-10
{11}
10 км 8/6 600 м
[Cb cap Ac trans]
+18.1 +10.3 60 +18 +19 1015.6 983.3
12 16.06 С 5-10
{11}
10 км 6/6 600 м
[Cu hum]
+21.1 +10.0 49 +23 +26 комфорт 1015.2 983.1
15 16.06 СВ 4
{10}
10 км 4/3 600 м
[Cu Sc Ac trans]
+20.2 +12.2 60 +22 +25 комфорт 1015.5 983.4
18 16.06 СВ 2 10 км 3/3 600 м
[Sc diur, vesp]
+15.7 +11.9 78 +16 +16 1016.3 983.7 +21.7
21 16.06 В 1 10 км ясно +12.2 +11.2 94 +12 +12 1017.1 984.1
00 17.06 Ю 1 6000 м дымка ясно +11.1 +10.3 95 +11 +11 1017.4 984.3
03 17.06 штиль 0 7000 м дымка 3/0
[Ci fib]
+9.2 +8.4 95 +8 +9 1018.0 984.5 +8.0
06 17.06 С 2 10 км 3/0
[Ci fib]
+16.3 +11.8 75 +16 +23 1016.9 984.4 +8.0
09 17.06 СВ 2 15 км 4/3 600 м
[Cu hum Ci fib]
+20.5 +12.7 61 +23 +34 комфорт 1016.8 984.6
12 17.06 В 2 15 км 6/4 600 м
[Cu hum Ci fib]
+23.3 +11.0 46 +26 +34 жарко 1015.5 983.8
15 17.06 СВ 2 15 км 6/3 600 м
[Cu hum Ci fib]
+24.4 +12.0 46 +26 +30 жарко 1014.4 982.8
18 17.06 ЮВ 1 10 км 6/3 600 м
[Sc diur, vesp Ci fib]
+21.9 +14.0 61 +25 +25 комфорт 1014.6 982.8 +25.2
21 17.06 Ю 2 10 км 3/0
[Ci fib]
+17.2 +11.5 69 +18 +18 1016.1 983.7
00 18.06 Ю 3 10 км 4/0
[Ac trans Ci fib]
+17.3 +10.7 65 +17 +17 1016.1 983.7
03 18.06 ЮЗ 3 10 км 8/5 600 м
[Sc Ac trans]
+17.5 +9.9 61 +18 +18 1016.1 983.7 +17.1
06 18.06 Ю 2 10 км 9/0
[Ac As]
+19.4 +12.1 63 +21 +24 комфорт 1016.6 984.4 +17.1
09 18.06 ЮЗ 2 10 км 10/0
[As trans Cs]
+24.1 +13.5 52 +26 +37 жарко 1016.2 984.5
12 18.06 ЮЗ 2 10 км 10/3 600 м
[Cu hum As trans Cs]
+25.1 +12.4 45 +27 +32 жарко 1015.9 984.4
15 18.06 Ю 2 10 км 9/3 600 м
[Cb cap Ac trans]
+24.3 +13.3 50 +26 +28 жарко 1015.2 983.6
18 18.06 З 1 10 км 9/3 600 м
[Cb cap Ac As]
+23.7 +13.2 52 +26 +26 жарко 1015.7 984.0 +25.8
21 18.06 З 1 10 км 10/0
[Ac As]
+20.3 +11.9 58 +23 +23 комфорт 1016.9 984.7
00 19.06 СЗ 1 10 км 10/0
[Ac As]
+18.9 +12.5 66 +21 +21 комфорт 1017.0 984.7
03 19.06 СЗ 1 8000 м дымка {ливн. осадки} 9/4 600 м
[Cb cap Ac trans]
+16.6 +14.9 90 +17 +18 1017.3 984.7 +16.5
06 19.06 СВ 2 10 км {ливн. осадки} 4/0
[Ac trans]
+19.6 +12.9 65 +22 +27 комфорт 1017.6 985.3 +16.5 0.1
09 19.06 Ю 2 10 км 3/3 600 м
[Cu hum Ac trans]
+24.3 +13.3 50 +26 +37 жарко 1016.0 984.4
12 19.06 З 4-10
{11}
15 км 4/3 600 м
[Cu med, cong Ci fib]
+26.0 +11.9 41 +27 +34 жарко 1014.9 983.5
15 19.06 З 5-11
{13}
15 км 8/3 600 м
[Sc diur, vesp Ac trans Ci fib]
+24.5 +9.3 38 +25 +27 комфорт 1014.7 983.1
18 19.06 СЗ 3
{11}
15 км 8/4 600 м
[Cb cap Ac trans Ci fib]
+22.2 +9.7 45 +24 +24 комфорт 1015.3 983.5 +26.3
21 19.06 ЮЗ 3 10 км 6 баллов +18.9 +11.9 64 +20 +20 1017.0 984.3
00 20.06 З 3
{10}
10 км 3 балла +15.9 +10.9 72 +15 +15 1019.0 985.9
03 20.06 З 2 10 км 3 балла +14.9 +11.3 79 +15 +15 1019.0 985.8 +13.5
06 20.06 З 5
{11}
10 км 3 балла +17.7 +10.3 62 +17 +20 1019.0 986.1 +13.5
09 20.06 З 5
{11}
10 км ясно +21.3 +4.8 34 +22 +30 комфорт 1018.0 985.4
12 20.06 З 4
{11}
10 км ясно +24.1 +3.9 27 +24 +33 комфорт 1017.0 984.8
15 20.06 З 4
{11}
10 км ясно +24.2 +4.0 27 +24 +27 комфорт 1017.0 984.8
18 20.06 З 2
{11}
10 км ясно +22.4 +7.4 38 +23 +24 комфорт 1016.0 983.6 +24.8
21 20.06 СЗ 1 10 км ясно +18.1 +8.1 52 +19 +19 1018.0 985.1
00 21.06 З 1 10 км ясно +13.7 +9.7 77 +14 +14 1018.0 984.6

 

Местоположение метеостанции Новогрудок (Гродненская область, Беларусь): широта 53.60 долгота 25.85 высота над уровнем моря 280 м.

В архиве по умолчанию представлена погода в Новогрудке за последнюю неделю. Архивные данные за месяц целиком и за предыдущие месяцы, начиная с января 2011 года, Вы можете получить, выбрав интересующий диапазон дат из раскрывающегося списка и нажав кнопку "Ввод!".


*Определитесь, кто Вы:
робот инопланетянин человек

Внимание! Время в таблицах - всемирное. Для получения местного времени необходимо прибавить поправку, которая в Новогрудке равна 3 ч.

Смотрите также архив погоды в соседних городах и на ближайших метеорологических станциях:

Погода в Лиде (Гродненская область, Беларусь) (48 км)
Погода в Барановичах (Брестская область, Беларусь) (53 км)
Погода в Столбцах (Минская область, Беларусь) (60 км)
Погода в Воложине (Минская область, Беларусь) (70 км)
Погода в Ошмянах (Гродненская область, Беларусь) (92 км)
Погода в Ганцевичах (Брестская область, Беларусь) (102 км)
Погода в Волковыске (Гродненская область, Беларусь) (104 км)
Погода в Ивацевичах (Брестская область, Беларусь) (105 км)
Погода в Varena (Литва) (112 км)
Погода в Гродно (Гродненская область, Беларусь) (119 км)

Пояснения к столбцам:

Ветер - указаны скорость ветра в м/с - средняя за 10 мин, порывы в срок и между сроками (в фигурных скобках) и направление, откуда дует ветер: С - северный, СВ - северо-восточный, В - восточный, ЮВ - юго-восточный, Ю - южный, ЮЗ - юго-западный, З - западный, СЗ - северо-западный.
Видимость - горизонтальная дальность видимости в метрах или километрах. При видимости от 1 до 10 км при отсутствии осадков обычно наблюдается дымка, при ухудшении видимости до 1 км и менее - туман. В сухую погоду видимость может ухудшаться дымом, пылью или мглою.
Явления - указаны атмосферные явления, наблюдавшиеся в срок или в последний час перед сроком; фигурными скобками обозначены явления, наблюдавшиеся между сроками (за 1-3 часа до срока); квадратными скобками обозначены град или гололедные отложения с указанием их диаметра в мм.
Облачность - указаны через наклонную черту общая и нижняя облачность в баллах и высота нижней границы облаков в метрах; квадратными скобками обозначены формы облаков: Ci - перистые, Cs - перисто-слоистые, Cc - перисто-кучевые, Ac - высококучевые, As - высокослоистые, Sc - слоисто-кучевые, Ns - слоисто-дождевые, Cu - кучевые, Cb - кучево-дождевые. Подробнее классификацию облаков см. в Атласе облаков (PDF).
T - Температура воздуха - температура, измеренная на высоте 2 м над землей.
Td - Температура точки росы - температура, при понижении до которой содержащийся в воздухе водяной пар достигнет насыщения.
f - Относительная влажность воздуха - влажноcть воздуха, измеренная на высоте 2 м над землей.
Te - Эффективная температура - температура, которую ощущает одетый по сезону человек в тени. Характеристика душности погоды. При расчете учитывается влияние влажности воздуха и скорости ветра на теплоощущения человека.
Tes - Эффективная температура на солнце - температура, которую ощущает человек, с поправкой на солнечный нагрев. Характеристика знойности погоды. Зависит от высоты солнца над горизонтом, облачности и скорости ветра. Ночью, в пасмурную погоду, а также при ветре 12 м/с и более поправка равна нулю.
P - Атмосферное давление - приведенное к уровню моря атмосферное давление.
Po - Атмосферное давление - измеренное на уровне метеостанции атмосферное давление.
Tmin - Минимальная температура - минимум температуры воздуха на высоте 2 м над землей.
Tmax - Максимальная температура - максимум температуры воздуха на высоте 2 м над землей.
R - Количество осадков - Количество выпавших осадков за период времени, мм. При наведении курсора мыши на число - период времени, за который выпало указанное количество осадков.
R24 - Количество осадков - Количество выпавших осадков за 24 часа, мм.
S - Снежный покров - Высота снежного покрова, см. При наведении курсора мыши на число - состояние снежного покрова и степень покрытия местности в баллах.